,,PA_Meas_PMT16A,,PR_Meas_QMR101_102,,RH_Meas_QMH101,,SR_Meas_QMS101,,TA_Meas_QMH101,,GenWind,,GenWind,
time,status,PA,status,PR,status,RH,status,SR,status,TA,status,DirAvg,status,SpdAvg,
2014-01-02, 00:00:04,VALID,918.584,VALID,0,VALID,91.9079,VALID,0,VALID,19.8978,VALID,142,VALID,2.11445,
2014-01-02, 00:01:04,VALID,918.572,VALID,0,VALID,91.9003,VALID,0,VALID,19.9188,VALID,143,VALID,1.80195,
2014-01-02, 00:02:04,VALID,918.629,VALID,0,VALID,91.9155,VALID,0,VALID,19.8783,VALID,144,VALID,1.46875,
2014-01-02, 00:03:04,VALID,918.585,VALID,0,VALID,91.9384,VALID,0,VALID,19.9173,VALID,143,VALID,2.09883,
2014-01-02, 00:04:04,VALID,918.565,VALID,0,VALID,91.9003,VALID,0,VALID,19.9173,VALID,164,VALID,1.37227,
2014-01-02, 00:05:04,VALID,918.578,VALID,0,VALID,91.8622,VALID,0,VALID,19.9173,VALID,163,VALID,1.25078,
2014-01-02, 00:06:04,VALID,918.579,VALID,0,VALID,91.8545,VALID,0,VALID,19.9173,VALID,145,VALID,1.29453,
2014-01-02, 00:07:04,VALID,918.589,VALID,0,VALID,91.8317,VALID,0,VALID,19.8978,VALID,140,VALID,1.60469,
2014-01-02, 00:08:04,VALID,918.602,VALID,0,VALID,91.9613,VALID,0.107441,VALID,19.8588,VALID,163,VALID,0.877344,
2014-01-02, 00:09:04,VALID,918.566,VALID,0,VALID,92.0756,VALID,0,VALID,19.8603,VALID,153,VALID,1.33398,
2014-01-02, 00:10:04,VALID,918.571,VALID,0,VALID,92.2281,VALID,0,VALID,19.8603,VALID,159,VALID,1.90352,
2014-01-02, 00:11:04,VALID,918.566,VALID,0,VALID,92.1595,VALID,0,VALID,19.8588,VALID,142,VALID,2.22773,
2014-01-02, 00:12:04,VALID,918.592,VALID,0,VALID,92.129,VALID,0,VALID,19.8588,VALID,136,VALID,2.07305,
2014-01-02, 00:13:04,VALID,918.591,VALID,0,VALID,92.129,VALID,0,VALID,19.8588,VALID,134,VALID,1.94258,
2014-01-02, 00:14:04,VALID,918.567,VALID,0,VALID,92.1976,VALID,0,VALID,19.8798,VALID,140,VALID,1.7668,
2014-01-02, 00:15:04,VALID,918.598,VALID,0,VALID,92.2281,VALID,0.107441,VALID,19.8393,VALID,142,VALID,1.77578,
2014-01-02, 00:16:04,VALID,918.537,VALID,0,VALID,92.2738,VALID,0,VALID,19.8393,VALID,153,VALID,2.01719,
2014-01-02, 00:17:04,VALID,918.552,VALID,0,VALID,92.2205,VALID,0,VALID,19.8408,VALID,135,VALID,1.80977,
2014-01-02, 00:18:04,VALID,918.511,VALID,0,VALID,92.2357,VALID,0,VALID,19.8393,VALID,135,VALID,1.78008,
2014-01-02, 00:19:04,VALID,918.51,VALID,0,VALID,92.2357,VALID,0,VALID,19.8198,VALID,133,VALID,1.76172,
2014-01-02, 00:20:04,VALID,918.507,VALID,0,VALID,92.2433,VALID,0.107441,VALID,19.8003,VALID,139,VALID,1.47109,
2014-01-02, 00:21:04,VALID,918.486,VALID,0,VALID,92.2814,VALID,0,VALID,19.8018,VALID,148,VALID,1.51445,
2014-01-02, 00:22:04,VALID,918.503,VALID,0,VALID,92.2662,VALID,0,VALID,19.7613,VALID,148,VALID,1.94531,
2014-01-02, 00:23:04,VALID,918.509,VALID,0,VALID,92.1061,VALID,0,VALID,19.8213,VALID,148,VALID,1.64336,
2014-01-02, 00:24:04,VALID,918.548,VALID,0,VALID,91.7326,VALID,0,VALID,19.8588,VALID,122,VALID,1.69219,
2014-01-02, 00:25:04,VALID,918.522,VALID,0,VALID,91.3895,VALID,0,VALID,19.9173,VALID,121,VALID,1.76758,
2014-01-02, 00:26:04,VALID,918.524,VALID,0,VALID,91.2294,VALID,0,VALID,19.9173,VALID,133,VALID,1.10586,
2014-01-02, 00:27:04,VALID,918.542,VALID,0,VALID,91.2218,VALID,0,VALID,19.8978,VALID,159,VALID,1.34453,
2014-01-02, 00:28:04,VALID,918.543,VALID,0,VALID,91.298,VALID,0,VALID,19.8588,VALID,126,VALID,1.44844,
2014-01-02, 00:29:04,VALID,918.546,VALID,0,VALID,91.4886,VALID,0,VALID,19.8198,VALID,156,VALID,1.15547,
2014-01-02, 00:30:04,VALID,918.518,VALID,0,VALID,91.6868,VALID,0,VALID,19.7613,VALID,153,VALID,1.31953,
2014-01-02, 00:31:04,VALID,918.527,VALID,0,VALID,91.8698,VALID,0,VALID,19.7223,VALID,157,VALID,1.14727,
2014-01-02, 00:32:04,VALID,918.531,VALID,0,VALID,92.0909,VALID,0,VALID,19.6833,VALID,152,VALID,0.675391,
2014-01-02, 00:33:04,VALID,918.514,VALID,0,VALID,92.3196,VALID,0,VALID,19.6443,VALID,148,VALID,1.56836,
2014-01-02, 00:34:04,VALID,918.491,VALID,0,VALID,92.5711,VALID,0,VALID,19.5858,VALID,164,VALID,0.939844,
2014-01-02, 00:35:04,VALID,918.474,VALID,0,VALID,92.7312,VALID,0,VALID,19.5468,VALID,167,VALID,1.03828,
2014-01-02, 00:36:04,VALID,918.468,VALID,0,VALID,92.9523,VALID,0,VALID,19.5273,VALID,167,VALID,0.898438,
2014-01-02, 00:37:04,VALID,918.479,VALID,0,VALID,93.1276,VALID,0,VALID,19.5093,VALID,169,VALID,0.693359,
2014-01-02, 00:38:04,VALID,918.47,VALID,0,VALID,93.2877,VALID,0,VALID,19.4703,VALID,143,VALID,0.885938,
2014-01-02, 00:39:04,VALID,918.45,VALID,0,VALID,93.4478,VALID,0,VALID,19.4313,VALID,136,VALID,1.12695,
2014-01-02, 00:40:04,VALID,918.428,VALID,0,VALID,93.6842,VALID,0,VALID,19.4103,VALID,161,VALID,1.23398,
2014-01-02, 00:41:04,VALID,918.449,VALID,0,VALID,93.7756,VALID,0,VALID,19.4313,VALID,148,VALID,1.48711,
2014-01-02, 00:42:04,VALID,918.414,VALID,0,VALID,93.8443,VALID,0,VALID,19.4298,VALID,155,VALID,1.59883,
2014-01-02, 00:43:04,VALID,918.379,VALID,0,VALID,93.8061,VALID,0,VALID,19.4493,VALID,153,VALID,1.78633,
2014-01-02, 00:44:04,VALID,918.379,VALID,0,VALID,93.7451,VALID,0,VALID,19.4703,VALID,146,VALID,1.53984,
2014-01-02, 00:45:04,VALID,918.326,VALID,0,VALID,93.7223,VALID,0,VALID,19.4883,VALID,141,VALID,1.97187,
2014-01-02, 00:46:04,VALID,918.312,VALID,0,VALID,93.5927,VALID,0,VALID,19.5078,VALID,146,VALID,1.69141,
2014-01-02, 00:47:04,VALID,918.297,VALID,0,VALID,93.4707,VALID,0.107441,VALID,19.5273,VALID,145,VALID,1.58789,
2014-01-02, 00:48:04,VALID,918.3,VALID,0,VALID,93.3868,VALID,0,VALID,19.5888,VALID,142,VALID,1.51641,
2014-01-02, 00:49:04,VALID,918.268,VALID,0,VALID,93.2572,VALID,0,VALID,19.5663,VALID,141,VALID,1.85547,
2014-01-02, 00:50:04,VALID,918.249,VALID,0,VALID,93.2649,VALID,0,VALID,19.5873,VALID,151,VALID,1.70703,
2014-01-02, 00:51:05,VALID,918.243,VALID,0,VALID,93.1353,VALID,0,VALID,19.5873,VALID,144,VALID,1.71836,
2014-01-02, 00:52:05,VALID,918.238,VALID,0,VALID,93.0209,VALID,0,VALID,19.5678,VALID,135,VALID,1.24922,
2014-01-02, 00:53:05,VALID,918.208,VALID,0,VALID,93.0819,VALID,0.107441,VALID,19.5873,VALID,135,VALID,1.24883,
2014-01-02, 00:54:05,VALID,918.202,VALID,0,VALID,92.9752,VALID,0,VALID,19.5678,VALID,121,VALID,1.78789,
2014-01-02, 00:55:05,VALID,918.198,VALID,0,VALID,93.0667,VALID,0,VALID,19.5678,VALID,134,VALID,1.99883,
2014-01-02, 00:56:05,VALID,918.186,VALID,0,VALID,93.1429,VALID,0,VALID,19.5483,VALID,133,VALID,1.80938,
2014-01-02, 00:57:05,VALID,918.195,VALID,0,VALID,93.1429,VALID,0,VALID,19.5288,VALID,140,VALID,1.4293,
2014-01-02, 00:58:05,VALID,918.182,VALID,0,VALID,93.1963,VALID,0,VALID,19.5093,VALID,162,VALID,1.20625,
2014-01-02, 00:59:05,VALID,918.193,VALID,0,VALID,93.2344,VALID,0,VALID,19.4703,VALID,149,VALID,1.125,
2014-01-02, 01:00:05,VALID,918.187,VALID,0,VALID,93.3564,VALID,0,VALID,19.4313,VALID,136,VALID,0.897266,
2014-01-02, 01:01:05,VALID,918.198,VALID,0,VALID,93.5012,VALID,0,VALID,19.3713,VALID,139,VALID,1.06016,
2014-01-02, 01:02:05,VALID,918.187,VALID,0,VALID,93.5622,VALID,0,VALID,19.3533,VALID,130,VALID,1.46563,
2014-01-02, 01:03:05,VALID,918.153,VALID,0,VALID,93.7375,VALID,0,VALID,19.2948,VALID,139,VALID,1.08438,
2014-01-02, 01:04:05,VALID,918.131,VALID,0,VALID,93.8824,VALID,0,VALID,19.2558,VALID,134,VALID,1.19219,
2014-01-02, 01:05:05,VALID,918.116,VALID,0,VALID,94.1339,VALID,0,VALID,19.2348,VALID,134,VALID,1.23398,
2014-01-02, 01:06:05,VALID,918.096,VALID,0,VALID,94.2559,VALID,0,VALID,19.2558,VALID,123,VALID,1.28867,
2014-01-02, 01:07:05,VALID,918.107,VALID,0,VALID,94.416,VALID,0,VALID,19.2168,VALID,140,VALID,1.69922,
2014-01-02, 01:08:05,VALID,918.118,VALID,0,VALID,94.5761,VALID,0,VALID,19.2363,VALID,134,VALID,1.10859,
2014-01-02, 01:09:05,VALID,918.085,VALID,0,VALID,94.7209,VALID,0,VALID,19.2363,VALID,143,VALID,1.02539,
2014-01-02, 01:10:05,VALID,918.066,VALID,0,VALID,94.8048,VALID,0,VALID,19.2543,VALID,176,VALID,1.77891,
2014-01-02, 01:11:05,VALID,918.117,VALID,0,VALID,94.7743,VALID,0,VALID,19.2948,VALID,106,VALID,1.4293,
2014-01-02, 01:12:05,VALID,918.093,VALID,0,VALID,94.7514,VALID,0,VALID,19.3128,VALID,140,VALID,1.71641,
2014-01-02, 01:13:05,VALID,918.087,VALID,0,VALID,94.6828,VALID,0,VALID,19.3728,VALID,132,VALID,1.66406,
2014-01-02, 01:14:05,VALID,918.108,VALID,0,VALID,94.538,VALID,0,VALID,19.3533,VALID,140,VALID,1.74492,
2014-01-02, 01:15:05,VALID,918.061,VALID,0,VALID,94.4236,VALID,0,VALID,19.3923,VALID,154,VALID,1.34453,
2014-01-02, 01:16:05,VALID,918.081,VALID,0,VALID,94.233,VALID,0,VALID,19.3728,VALID,135,VALID,1.45898,
2014-01-02, 01:17:05,VALID,918.068,VALID,0,VALID,94.233,VALID,0,VALID,19.3728,VALID,145,VALID,1.58789,
2014-01-02, 01:18:05,VALID,918.041,VALID,0,VALID,94.2178,VALID,0,VALID,19.3923,VALID,140,VALID,1.34531,
2014-01-02, 01:19:05,VALID,918.029,VALID,0,VALID,94.1568,VALID,0,VALID,19.3728,VALID,136,VALID,0.921484,
2014-01-02, 01:20:05,VALID,918.019,VALID,0,VALID,94.1949,VALID,0,VALID,19.3533,VALID,131,VALID,2.09023,
2014-01-02, 01:21:05,VALID,917.995,VALID,0,VALID,94.1568,VALID,0,VALID,19.3533,VALID,140,VALID,2.06367,
2014-01-02, 01:22:05,VALID,918.007,VALID,0,VALID,94.1111,VALID,0,VALID,19.3713,VALID,144,VALID,1.78906,
2014-01-02, 01:23:05,VALID,917.983,VALID,0,VALID,93.9967,VALID,0.107441,VALID,19.3908,VALID,150,VALID,1.44844,
2014-01-02, 01:24:05,VALID,917.934,VALID,0,VALID,93.9357,VALID,0.107441,VALID,19.3908,VALID,147,VALID,1.72891,
2014-01-02, 01:25:05,VALID,917.948,VALID,0,VALID,93.8595,VALID,0,VALID,19.3908,VALID,143,VALID,1.51641,
2014-01-02, 01:26:05,VALID,917.921,VALID,0,VALID,93.7833,VALID,0,VALID,19.3713,VALID,146,VALID,1.53594,
2014-01-02, 01:27:05,VALID,917.896,VALID,0,VALID,93.7604,VALID,0,VALID,19.3518,VALID,159,VALID,1.32617,
2014-01-02, 01:28:05,VALID,917.889,VALID,0,VALID,93.8061,VALID,0,VALID,19.3323,VALID,145,VALID,1.34258,
2014-01-02, 01:29:05,VALID,917.862,VALID,0,VALID,93.9129,VALID,0.107441,VALID,19.3338,VALID,157,VALID,1.55391,
2014-01-02, 01:30:05,VALID,917.845,VALID,0,VALID,93.9586,VALID,0,VALID,19.3128,VALID,160,VALID,1.10586,
2014-01-02, 01:31:05,VALID,917.828,VALID,0,VALID,94.0348,VALID,0.107441,VALID,19.2933,VALID,154,VALID,1.41602,
2014-01-02, 01:32:05,VALID,917.823,VALID,0,VALID,93.9586,VALID,0.107441,VALID,19.2543,VALID,161,VALID,1.52148,
2014-01-02, 01:33:05,VALID,917.826,VALID,0,VALID,94.1416,VALID,0,VALID,19.2753,VALID,168,VALID,2.31484,
2014-01-02, 01:34:05,VALID,917.808,VALID,0,VALID,94.1111,VALID,0.107441,VALID,19.2363,VALID,165,VALID,1.6043,
2014-01-02, 01:35:05,VALID,917.809,VALID,0,VALID,94.2788,VALID,0,VALID,19.2363,VALID,155,VALID,1.53242,
2014-01-02, 01:36:05,VALID,917.773,VALID,0,VALID,94.3779,VALID,0.107441,VALID,19.2558,VALID,166,VALID,1.32109,
2014-01-02, 01:37:05,VALID,917.796,VALID,0,VALID,94.416,VALID,0,VALID,19.2558,VALID,162,VALID,1.57969,
2014-01-02, 01:38:05,VALID,917.78,VALID,0,VALID,94.4389,VALID,0,VALID,19.2753,VALID,145,VALID,1.06562,
2014-01-02, 01:39:05,VALID,917.767,VALID,0,VALID,94.3093,VALID,0,VALID,19.2948,VALID,160,VALID,1.17383,
2014-01-02, 01:40:05,VALID,917.729,VALID,0,VALID,94.233,VALID,0,VALID,19.2738,VALID,159,VALID,1.57148,
2014-01-02, 01:41:05,VALID,917.748,VALID,0,VALID,94.1492,VALID,0.107441,VALID,19.2348,VALID,159,VALID,1.44141,
2014-01-02, 01:42:05,VALID,917.716,VALID,0,VALID,94.2102,VALID,0.107441,VALID,19.2168,VALID,146,VALID,1.08203,
2014-01-02, 01:43:05,VALID,917.686,VALID,0,VALID,94.2559,VALID,0,VALID,19.2153,VALID,151,VALID,1.42695,
2014-01-02, 01:44:05,VALID,917.685,VALID,0,VALID,94.3093,VALID,0.107441,VALID,19.1958,VALID,158,VALID,1.17188,
2014-01-02, 01:45:05,VALID,917.685,VALID,0,VALID,94.3017,VALID,0.107441,VALID,19.1763,VALID,162,VALID,1.8125,
2014-01-02, 01:46:05,VALID,917.686,VALID,0,VALID,94.3626,VALID,0,VALID,19.1583,VALID,169,VALID,1.58594,
2014-01-02, 01:47:05,VALID,917.657,VALID,0,VALID,94.4236,VALID,0,VALID,19.1193,VALID,160,VALID,1.45156,
2014-01-02, 01:48:05,VALID,917.673,VALID,0,VALID,94.6295,VALID,0,VALID,19.1193,VALID,155,VALID,1.81484,
2014-01-02, 01:49:05,VALID,917.688,VALID,0,VALID,94.7438,VALID,0,VALID,19.1193,VALID,166,VALID,1.51484,
2014-01-02, 01:50:05,VALID,917.674,VALID,0,VALID,94.7514,VALID,0,VALID,19.0983,VALID,142,VALID,1.24531,
2014-01-02, 01:51:05,VALID,917.658,VALID,0,VALID,94.7438,VALID,0,VALID,19.0983,VALID,139,VALID,1.16758,
2014-01-02, 01:52:05,VALID,917.606,VALID,0,VALID,94.6752,VALID,0,VALID,19.1388,VALID,146,VALID,0.921484,
2014-01-02, 01:53:05,VALID,917.605,VALID,0,VALID,94.4617,VALID,0,VALID,19.0998,VALID,135,VALID,0.935938,
2014-01-02, 01:54:05,VALID,917.586,VALID,0,VALID,94.3931,VALID,0,VALID,19.0803,VALID,136,VALID,1.25039,
2014-01-02, 01:55:05,VALID,917.571,VALID,0,VALID,94.2559,VALID,0,VALID,19.0803,VALID,140,VALID,1.49023,
2014-01-02, 01:56:05,VALID,917.573,VALID,0,VALID,94.3245,VALID,0,VALID,19.0998,VALID,141,VALID,1.6125,
2014-01-02, 01:57:05,VALID,917.575,VALID,0,VALID,94.1949,VALID,0,VALID,19.0398,VALID,151,VALID,1.37695,
2014-01-02, 01:58:05,VALID,917.581,VALID,0,VALID,94.3017,VALID,0,VALID,19.0413,VALID,157,VALID,1.21367,
2014-01-02, 01:59:05,VALID,917.583,VALID,0,VALID,94.4389,VALID,0,VALID,19.0203,VALID,169,VALID,1.45742,
2014-01-02, 02:00:05,VALID,917.558,VALID,0,VALID,94.4999,VALID,0,VALID,19.0413,VALID,168,VALID,1.60664,
2014-01-02, 02:01:05,VALID,917.566,VALID,0,VALID,94.5532,VALID,0,VALID,19.0008,VALID,162,VALID,1.50391,
2014-01-02, 02:02:05,VALID,917.541,VALID,0,VALID,94.6676,VALID,0,VALID,19.0608,VALID,163,VALID,1.3707,
2014-01-02, 02:03:05,VALID,917.529,VALID,0,VALID,94.6066,VALID,0,VALID,19.0413,VALID,165,VALID,0.936719,
2014-01-02, 02:04:05,VALID,917.52,VALID,0,VALID,94.6066,VALID,0.107441,VALID,19.0413,VALID,165,VALID,1.73828,
2014-01-02, 02:05:05,VALID,917.521,VALID,0,VALID,94.6447,VALID,0,VALID,19.0413,VALID,167,VALID,1.37578,
2014-01-02, 02:06:05,VALID,917.531,VALID,0,VALID,94.6752,VALID,0,VALID,19.0398,VALID,161,VALID,1.53828,
2014-01-02, 02:07:05,VALID,917.54,VALID,0,VALID,94.6828,VALID,0,VALID,19.0803,VALID,162,VALID,1.63437,
2014-01-02, 02:08:05,VALID,917.524,VALID,0,VALID,94.6828,VALID,0,VALID,19.0593,VALID,159,VALID,1.58906,
2014-01-02, 02:09:05,VALID,917.511,VALID,0,VALID,94.6218,VALID,0,VALID,19.0803,VALID,161,VALID,1.72539,
2014-01-02, 02:10:05,VALID,917.487,VALID,0,VALID,94.6295,VALID,0,VALID,19.0803,VALID,160,VALID,2.03437,
2014-01-02, 02:11:05,VALID,917.455,VALID,0,VALID,94.6371,VALID,0,VALID,19.0803,VALID,153,VALID,1.67617,
2014-01-02, 02:12:05,VALID,917.46,VALID,0,VALID,94.6218,VALID,0,VALID,19.0608,VALID,152,VALID,1.33359,
2014-01-02, 02:13:05,VALID,917.449,VALID,0,VALID,94.6295,VALID,0,VALID,19.0803,VALID,152,VALID,1.20117,
2014-01-02, 02:14:05,VALID,917.457,VALID,0,VALID,94.6142,VALID,0,VALID,19.0803,VALID,164,VALID,1.33516,
2014-01-02, 02:15:05,VALID,917.414,VALID,0,VALID,94.6447,VALID,0,VALID,19.0803,VALID,151,VALID,1.0125,
2014-01-02, 02:16:05,VALID,917.42,VALID,0,VALID,94.6828,VALID,0,VALID,19.0998,VALID,140,VALID,1.60703,
2014-01-02, 02:17:05,VALID,917.404,VALID,0,VALID,94.6295,VALID,0,VALID,19.0998,VALID,153,VALID,1.125,
2014-01-02, 02:18:05,VALID,917.357,VALID,0,VALID,94.6218,VALID,0,VALID,19.0998,VALID,147,VALID,1.29844,
2014-01-02, 02:19:05,VALID,917.373,VALID,0,VALID,94.6066,VALID,0,VALID,19.0998,VALID,149,VALID,1.15273,
2014-01-02, 02:20:05,VALID,917.385,VALID,0,VALID,94.6752,VALID,0,VALID,19.0998,VALID,152,VALID,1.08789,
2014-01-02, 02:21:05,VALID,917.326,VALID,0,VALID,94.6752,VALID,0,VALID,19.0998,VALID,168,VALID,1.51445,
2014-01-02, 02:22:05,VALID,917.366,VALID,0,VALID,94.6295,VALID,0,VALID,19.0803,VALID,173,VALID,1.64297,
2014-01-02, 02:23:05,VALID,917.31,VALID,0,VALID,94.6752,VALID,0,VALID,19.0608,VALID,172,VALID,1.74023,
2014-01-02, 02:24:05,VALID,917.33,VALID,0,VALID,94.7133,VALID,0,VALID,19.0608,VALID,170,VALID,1.45,
2014-01-02, 02:25:05,VALID,917.305,VALID,0,VALID,94.7438,VALID,0,VALID,19.0413,VALID,167,VALID,1.06523,
2014-01-02, 02:26:05,VALID,917.304,VALID,0,VALID,94.7819,VALID,0,VALID,19.0218,VALID,176,VALID,1.45781,
2014-01-02, 02:27:05,VALID,917.314,VALID,0,VALID,94.8429,VALID,0,VALID,18.9814,VALID,154,VALID,1.14922,
2014-01-02, 02:28:05,VALID,917.312,VALID,0,VALID,94.942,VALID,0,VALID,18.9828,VALID,153,VALID,1.1375,
2014-01-02, 02:29:05,VALID,917.253,VALID,0,VALID,95.003,VALID,0,VALID,18.9828,VALID,145,VALID,0.963672,
2014-01-02, 02:30:05,VALID,917.272,VALID,0,VALID,95.0488,VALID,0,VALID,19.0037,VALID,153,VALID,1.21406,
2014-01-02, 02:31:05,VALID,917.273,VALID,0,VALID,95.1021,VALID,0,VALID,19.0037,VALID,157,VALID,0.949609,
2014-01-02, 02:32:05,VALID,917.243,VALID,0,VALID,95.1174,VALID,0,VALID,19.0023,VALID,152,VALID,1.52188,
2014-01-02, 02:33:05,VALID,917.277,VALID,0,VALID,95.1479,VALID,0,VALID,19.0218,VALID,149,VALID,0.885547,
2014-01-02, 02:34:05,VALID,917.274,VALID,0,VALID,95.1174,VALID,0,VALID,19.0413,VALID,143,VALID,1.33984,
2014-01-02, 02:35:05,VALID,917.268,VALID,0,VALID,95.1021,VALID,0,VALID,19.0413,VALID,136,VALID,1.11055,
2014-01-02, 02:36:05,VALID,917.248,VALID,0,VALID,95.0259,VALID,0,VALID,19.0413,VALID,138,VALID,1.3207,
2014-01-02, 02:37:05,VALID,917.261,VALID,0,VALID,94.9801,VALID,0,VALID,19.0203,VALID,146,VALID,1.30625,
2014-01-02, 02:38:05,VALID,917.254,VALID,0,VALID,94.9496,VALID,0,VALID,19.0218,VALID,155,VALID,0.633984,
2014-01-02, 02:39:05,VALID,917.233,VALID,0,VALID,94.8963,VALID,0,VALID,19.0023,VALID,149,VALID,1.34531,
2014-01-02, 02:40:05,VALID,917.227,VALID,0,VALID,94.9039,VALID,0,VALID,18.9828,VALID,143,VALID,0.907422,
2014-01-02, 02:41:05,VALID,917.233,VALID,0,VALID,94.881,VALID,0,VALID,18.9633,VALID,154,VALID,0.832422,
2014-01-02, 02:42:05,VALID,917.232,VALID,0,VALID,94.8887,VALID,0,VALID,18.9633,VALID,163,VALID,1.39609,
2014-01-02, 02:43:05,VALID,917.223,VALID,0,VALID,94.942,VALID,0,VALID,18.9438,VALID,151,VALID,1.33242,
2014-01-02, 02:44:05,VALID,917.193,VALID,0,VALID,94.9878,VALID,0,VALID,18.9438,VALID,154,VALID,1.38008,
2014-01-02, 02:45:05,VALID,917.196,VALID,0,VALID,94.9878,VALID,0,VALID,18.9438,VALID,138,VALID,0.883594,
2014-01-02, 02:46:05,VALID,917.148,VALID,0,VALID,94.9801,VALID,0,VALID,18.9243,VALID,139,VALID,1.08516,
2014-01-02, 02:47:05,VALID,917.141,VALID,0,VALID,95.0335,VALID,0,VALID,18.9452,VALID,151,VALID,1.05117,
2014-01-02, 02:48:05,VALID,917.166,VALID,0,VALID,95.0716,VALID,0,VALID,18.9243,VALID,144,VALID,1.53437,
2014-01-02, 02:49:05,VALID,917.131,VALID,0,VALID,95.0792,VALID,0,VALID,18.9452,VALID,135,VALID,0.8625,
2014-01-02, 02:50:05,VALID,917.144,VALID,0,VALID,95.0792,VALID,0,VALID,18.9243,VALID,146,VALID,0.916406,
2014-01-02, 02:51:05,VALID,917.138,VALID,0,VALID,95.0716,VALID,0,VALID,18.9048,VALID,139,VALID,0.797656,
2014-01-02, 02:52:05,VALID,917.147,VALID,0,VALID,95.0488,VALID,0,VALID,18.8853,VALID,158,VALID,0.505469,
2014-01-02, 02:53:05,VALID,917.178,VALID,0,VALID,95.0411,VALID,0,VALID,18.8658,VALID,148,VALID,0.685156,
2014-01-02, 02:54:05,VALID,917.148,VALID,0,VALID,95.0183,VALID,0,VALID,18.8672,VALID,163,VALID,0.891797,
2014-01-02, 02:55:05,VALID,917.163,VALID,0,VALID,95.0259,VALID,0,VALID,18.8463,VALID,165,VALID,0.569531,
2014-01-02, 02:56:05,VALID,917.146,VALID,0,VALID,95.0335,VALID,0,VALID,18.8268,VALID,165,VALID,1.02305,
2014-01-02, 02:57:05,VALID,917.135,VALID,0,VALID,95.125,VALID,0,VALID,18.8672,VALID,163,VALID,1.13125,
2014-01-02, 02:58:05,VALID,917.125,VALID,0,VALID,95.1402,VALID,0,VALID,18.8477,VALID,162,VALID,0.869531,
2014-01-02, 02:59:05,VALID,917.098,VALID,0,VALID,95.1783,VALID,0,VALID,18.8268,VALID,144,VALID,0.603125,
2014-01-02, 03:00:05,VALID,917.076,VALID,0,VALID,95.2012,VALID,0,VALID,18.8268,VALID,143,VALID,0.670703,
2014-01-02, 03:01:05,VALID,917.096,VALID,0,VALID,95.2012,VALID,0,VALID,18.8268,VALID,142,VALID,0.754297,
2014-01-02, 03:02:05,VALID,917.086,VALID,0,VALID,95.1631,VALID,0,VALID,18.8268,VALID,140,VALID,0.690234,
2014-01-02, 03:03:05,VALID,917.07,VALID,0,VALID,95.1783,VALID,0,VALID,18.8268,VALID,128,VALID,0.969531,
2014-01-02, 03:04:05,VALID,917.092,VALID,0,VALID,95.1402,VALID,0,VALID,18.8463,VALID,128,VALID,0.675391,
2014-01-02, 03:05:05,VALID,917.097,VALID,0,VALID,95.125,VALID,0,VALID,18.8463,VALID,128,VALID,0.735937,
2014-01-02, 03:06:05,VALID,917.126,VALID,0,VALID,95.125,VALID,0,VALID,18.8672,VALID,128,VALID,0.728125,
2014-01-02, 03:07:05,VALID,917.145,VALID,0,VALID,95.1097,VALID,0,VALID,18.8463,VALID,128,VALID,0.907031,
2014-01-02, 03:08:05,VALID,917.128,VALID,0,VALID,95.0792,VALID,0,VALID,18.8658,VALID,140,VALID,0.844141,
2014-01-02, 03:09:05,VALID,917.155,VALID,0,VALID,95.0335,VALID,0,VALID,18.8853,VALID,141,VALID,0.792969,
2014-01-02, 03:10:05,VALID,917.123,VALID,0,VALID,95.0259,VALID,0,VALID,18.9452,VALID,153,VALID,0.94375,
2014-01-02, 03:11:05,VALID,917.114,VALID,0,VALID,94.8887,VALID,0,VALID,18.9243,VALID,128,VALID,0.858984,
2014-01-02, 03:12:05,VALID,917.11,VALID,0,VALID,94.8048,VALID,0,VALID,18.9243,VALID,128,VALID,1.04609,
2014-01-02, 03:13:05,VALID,917.1,VALID,0,VALID,94.8124,VALID,0,VALID,18.9438,VALID,128,VALID,0.870703,
2014-01-02, 03:14:05,VALID,917.103,VALID,0,VALID,94.6981,VALID,0,VALID,18.9438,VALID,146,VALID,0.749609,
2014-01-02, 03:15:05,VALID,917.122,VALID,0,VALID,94.5761,VALID,0,VALID,18.9438,VALID,136,VALID,0.615234,
2014-01-02, 03:16:05,VALID,917.114,VALID,0,VALID,94.6752,VALID,0,VALID,18.9438,VALID,136,VALID,0.785937,
2014-01-02, 03:17:05,VALID,917.136,VALID,0,VALID,94.6523,VALID,0,VALID,18.9438,VALID,136,VALID,0.742188,
2014-01-02, 03:18:05,VALID,917.112,VALID,0,VALID,94.7286,VALID,0,VALID,18.9243,VALID,137,VALID,0.682422,
2014-01-02, 03:19:05,VALID,917.138,VALID,0,VALID,94.6905,VALID,0,VALID,18.9048,VALID,137,VALID,0.638672,
2014-01-02, 03:20:05,VALID,917.129,VALID,0,VALID,94.7819,VALID,0,VALID,18.9048,VALID,137,VALID,0.869922,
2014-01-02, 03:21:05,VALID,917.119,VALID,0,VALID,94.8353,VALID,0,VALID,18.8853,VALID,137,VALID,0.714063,
2014-01-02, 03:22:05,VALID,917.144,VALID,0,VALID,94.8429,VALID,0,VALID,18.8853,VALID,137,VALID,0.780078,
2014-01-02, 03:23:05,VALID,917.118,VALID,0,VALID,94.8658,VALID,0,VALID,18.8463,VALID,136,VALID,1.03984,
2014-01-02, 03:24:05,VALID,917.099,VALID,0,VALID,94.8734,VALID,0,VALID,18.8268,VALID,130,VALID,0.889844,
2014-01-02, 03:25:05,VALID,917.109,VALID,0,VALID,94.7819,VALID,0,VALID,18.7878,VALID,125,VALID,0.834766,
2014-01-02, 03:26:05,VALID,917.062,VALID,0,VALID,94.7438,VALID,0,VALID,18.7697,VALID,125,VALID,0.864844,
2014-01-02, 03:27:05,VALID,917.075,VALID,0,VALID,94.8963,VALID,0,VALID,18.7474,VALID,125,VALID,0.75,
2014-01-02, 03:28:05,VALID,917.071,VALID,0,VALID,94.8429,VALID,0.107441,VALID,18.7084,VALID,125,VALID,0.752344,
2014-01-02, 03:29:05,VALID,917.096,VALID,0,VALID,94.9878,VALID,0.107441,VALID,18.6889,VALID,125,VALID,1.07578,
2014-01-02, 03:30:05,VALID,917.057,VALID,0,VALID,95.0564,VALID,0.107441,VALID,18.6889,VALID,125,VALID,0.967578,
2014-01-02, 03:31:05,VALID,917.07,VALID,0,VALID,95.0411,VALID,0,VALID,18.6694,VALID,125,VALID,0.924609,
2014-01-02, 03:32:05,VALID,917.055,VALID,0,VALID,95.1783,VALID,0.107441,VALID,18.6694,VALID,132,VALID,1.01758,
2014-01-02, 03:33:05,VALID,917.083,VALID,0,VALID,95.1936,VALID,0.107441,VALID,18.6694,VALID,129,VALID,1.22383,
2014-01-02, 03:34:05,VALID,917.115,VALID,0,VALID,95.3079,VALID,0.107441,VALID,18.7084,VALID,136,VALID,0.963281,
2014-01-02, 03:35:04,VALID,917.092,VALID,0,VALID,95.3766,VALID,0.107441,VALID,18.7474,VALID,128,VALID,1.55313,
2014-01-02, 03:36:04,VALID,917.102,VALID,0,VALID,95.3461,VALID,0,VALID,18.7864,VALID,130,VALID,1.02109,
2014-01-02, 03:37:04,VALID,917.12,VALID,0,VALID,95.2927,VALID,0.107441,VALID,18.7864,VALID,123,VALID,1.12344,
2014-01-02, 03:38:04,VALID,917.129,VALID,0,VALID,95.2622,VALID,0.107441,VALID,18.7864,VALID,126,VALID,1.39609,
2014-01-02, 03:39:04,VALID,917.119,VALID,0,VALID,95.247,VALID,0,VALID,18.7864,VALID,132,VALID,1.51875,
2014-01-02, 03:40:04,VALID,917.099,VALID,0,VALID,95.2393,VALID,0.107441,VALID,18.8463,VALID,124,VALID,1.5707,
2014-01-02, 03:41:04,VALID,917.107,VALID,0,VALID,95.2241,VALID,0.107441,VALID,18.8254,VALID,119,VALID,1.16484,
2014-01-02, 03:42:04,VALID,917.083,VALID,0,VALID,95.1631,VALID,0,VALID,18.8268,VALID,121,VALID,0.826563,
2014-01-02, 03:43:04,VALID,917.064,VALID,0,VALID,95.1555,VALID,0,VALID,18.8268,VALID,134,VALID,1.24844,